When you browse on this site, cookies collect data to enhance your experience and personalize the content and advertising you see.
Visit our Privacy Policy to learn more. By continuing to use the site, you agree to this use of cookies and data.
  • In Denmark
  • List of Countries
  • For 7 days
  • Water Temperature
  • Satellite Maps
  • Weather Map
  • Weather Widgets
  • user-avatar
    Login

    Hourly Weather Yeghegnadzor

    Today, 16 July, Tuesday

    Time Temperature Precipitation Wind Pressure Humidity
    00:00 +22°C° 0 mm 1 mps 648 mmHg 43%
    01:00 +22°C° 0 mm 1 mps 648 mmHg 44%
    02:00 +21°C° 0 mm 1 mps 648 mmHg 45%
    03:00 +20°C° 0 mm 1 mps 648 mmHg 50%
    04:00 +21°C° 0 mm 1 mps 648 mmHg 50%
    05:00 +22°C° 0 mm 1 mps 649 mmHg 49%
    06:00 +23°C° 0 mm 1 mps 649 mmHg 49%
    07:00 +24°C° 0 mm 1 mps 650 mmHg 44%
    08:00 +26°C° 0 mm 1 mps 650 mmHg 38%
    09:00 +28°C° 0 mm 1 mps 650 mmHg 31%
    10:00 +29°C° 0 mm 2 mps 650 mmHg 29%
    11:00 +30°C° 0 mm 3 mps 650 mmHg 27%
    12:00 +31°C° 0 mm 3 mps 650 mmHg 25%
    13:00 +33°C° 0 mm 3 mps 650 mmHg 24%
    14:00 +33°C° 0 mm 3 mps 650 mmHg 23%
    15:00 +33°C° 0 mm 3 mps 649 mmHg 22%
    16:00 +32°C° 0 mm 2 mps 649 mmHg 25%
    17:00 +31°C° 0 mm 2 mps 649 mmHg 28%
    18:00 +31°C° 0 mm 1 mps 649 mmHg 31%
    19:00 +28°C° 0 mm 2 mps 649 mmHg 41%
    20:00 +26°C° 0 mm 2 mps 649 mmHg 51%
    21:00 +22°C° 0 mm 3 mps 649 mmHg 61%
    22:00 +21°C° 0 mm 3 mps 649 mmHg 63%
    23:00 +21°C° 0 mm 2 mps 649 mmHg 66%

    Tomorrow, 17 July, Wednesday

    Time Temperature Precipitation Wind Pressure Humidity
    00:00 +20°C° 0 mm 2 mps 649 mmHg 68%
    01:00 +20°C° 0 mm 2 mps 648 mmHg 68%
    02:00 +19°C° 0 mm 2 mps 648 mmHg 69%
    03:00 +19°C° 0 mm 2 mps 648 mmHg 70%
    04:00 +20°C° 0 mm 2 mps 648 mmHg 67%
    05:00 +22°C° 0 mm 1 mps 649 mmHg 63%
    06:00 +22°C° 0 mm 1 mps 649 mmHg 60%
    07:00 +24°C° 0 mm 1 mps 650 mmHg 54%
    08:00 +26°C° 0 mm 1 mps 650 mmHg 48%
    09:00 +28°C° 0 mm 1 mps 650 mmHg 42%
    10:00 +29°C° 0 mm 2 mps 651 mmHg 38%
    11:00 +31°C° 0 mm 2 mps 651 mmHg 35%
    12:00 +33°C° 0 mm 3 mps 651 mmHg 31%
    13:00 +33°C° 0 mm 3 mps 650 mmHg 28%
    14:00 +34°C° 0 mm 4 mps 650 mmHg 26%
    15:00 +34°C° 0 mm 4 mps 650 mmHg 24%
    16:00 +34°C° 0 mm 3 mps 650 mmHg 28%
    17:00 +32°C° 0 mm 2 mps 650 mmHg 31%
    18:00 +31°C° 0 mm 1 mps 649 mmHg 35%
    19:00 +29°C° 0 mm 2 mps 649 mmHg 44%
    20:00 +26°C° 0 mm 2 mps 649 mmHg 52%
    21:00 +24°C° 0 mm 3 mps 649 mmHg 60%
    22:00 +22°C° 0 mm 3 mps 649 mmHg 59%
    23:00 +23°C° 0 mm 2 mps 649 mmHg 59%

    Day after tomorrow, 18 July, Thursday

    Time Temperature Precipitation Wind Pressure Humidity
    00:00 +23°C° 0 mm 2 mps 649 mmHg 58%
    01:00 +21°C° 0 mm 2 mps 649 mmHg 58%
    02:00 +20°C° 0 mm 2 mps 648 mmHg 57%
    03:00 +20°C° 0 mm 2 mps 648 mmHg 57%
    04:00 +22°C° 0 mm 1 mps 649 mmHg 56%
    05:00 +23°C° 0 mm 1 mps 649 mmHg 54%
    06:00 +24°C° 0 mm 1 mps 650 mmHg 52%
    07:00 +26°C° 0 mm 1 mps 650 mmHg 46%
    08:00 +28°C° 0 mm 1 mps 651 mmHg 40%
    09:00 +30°C° 0 mm 2 mps 651 mmHg 34%
    10:00 +31°C° 0 mm 3 mps 651 mmHg 31%
    11:00 +33°C° 0 mm 3 mps 651 mmHg 27%
    12:00 +35°C° 0 mm 4 mps 651 mmHg 24%
    13:00 +35°C° 0 mm 4 mps 651 mmHg 23%
    14:00 +35°C° 0 mm 4 mps 651 mmHg 23%
    15:00 +35°C° 0 mm 5 mps 650 mmHg 22%
    16:00 +35°C° 0 mm 4 mps 650 mmHg 23%
    17:00 +35°C° 0 mm 3 mps 650 mmHg 24%
    18:00 +35°C° 0 mm 3 mps 650 mmHg 25%
    19:00 +31°C° 0 mm 3 mps 650 mmHg 34%
    20:00 +28°C° 0 mm 3 mps 650 mmHg 44%
    21:00 +25°C° 0 mm 3 mps 649 mmHg 53%
    22:00 +24°C° 0 mm 2 mps 650 mmHg 52%
    23:00 +23°C° 0 mm 2 mps 650 mmHg 51%

    19 July, Friday

    Time Temperature Precipitation Wind Pressure Humidity
    00:00 +23°C° 0 mm 2 mps 650 mmHg 49%
    01:00 +21°C° 0 mm 2 mps 650 mmHg 51%
    02:00 +22°C° 0 mm 1 mps 650 mmHg 52%
    03:00 +21°C° 0 mm 1 mps 650 mmHg 53%
    04:00 +22°C° 0 mm 1 mps 650 mmHg 52%
    05:00 +23°C° 0 mm 1 mps 651 mmHg 51%
    06:00 +24°C° 0 mm 1 mps 651 mmHg 49%
    07:00 +26°C° 0 mm 1 mps 652 mmHg 44%
    08:00 +28°C° 0 mm 1 mps 652 mmHg 38%
    09:00 +30°C° 0 mm 1 mps 653 mmHg 33%
    10:00 +31°C° 0 mm 2 mps 653 mmHg 30%
    11:00 +33°C° 0 mm 3 mps 653 mmHg 26%
    12:00 +35°C° 0 mm 3 mps 653 mmHg 23%
    13:00 +35°C° 0 mm 3 mps 653 mmHg 23%
    14:00 +35°C° 0 mm 4 mps 653 mmHg 23%
    15:00 +36°C° 0 mm 4 mps 652 mmHg 22%
    16:00 +35°C° 0 mm 4 mps 652 mmHg 28%
    17:00 +34°C° 0 mm 3 mps 652 mmHg 34%
    18:00 +33°C° 0 mm 3 mps 652 mmHg 39%
    19:00 +29°C° 0 mm 3 mps 652 mmHg 50%
    20:00 +27°C° 0 mm 3 mps 652 mmHg 60%
    21:00 +24°C° 0 mm 3 mps 652 mmHg 71%
    22:00 +24°C° 0 mm 3 mps 652 mmHg 72%
    23:00 +22°C° 0 mm 3 mps 652 mmHg 73%

    20 July, Saturday

    Time Temperature Precipitation Wind Pressure Humidity
    00:00 +21°C° 0 mm 3 mps 653 mmHg 74%
    01:00 +21°C° 0 mm 2 mps 653 mmHg 73%
    02:00 +20°C° 0 mm 2 mps 653 mmHg 73%
    03:00 +20°C° 0 mm 2 mps 653 mmHg 73%
    04:00 +21°C° 0 mm 2 mps 653 mmHg 70%
    05:00 +21°C° 0 mm 2 mps 654 mmHg 67%
    06:00 +23°C° 0 mm 2 mps 654 mmHg 64%
    07:00 +25°C° 0 mm 2 mps 655 mmHg 58%
    08:00 +27°C° 0 mm 2 mps 655 mmHg 51%
    09:00 +28°C° 0 mm 2 mps 656 mmHg 45%
    10:00 +30°C° 0 mm 2 mps 656 mmHg 41%
    11:00 +31°C° 0 mm 2 mps 656 mmHg 37%
    12:00 +34°C° 0 mm 3 mps 656 mmHg 33%
    13:00 +34°C° 0 mm 3 mps 656 mmHg 32%
    14:00 +35°C° 0 mm 3 mps 656 mmHg 30%
    15:00 +36°C° 0 mm 3 mps 656 mmHg 29%
    16:00 +34°C° 0 mm 3 mps 656 mmHg 34%
    17:00 +33°C° 0 mm 3 mps 655 mmHg 39%
    18:00 +31°C° 0 mm 3 mps 655 mmHg 44%
    19:00 +29°C° 0 mm 3 mps 655 mmHg 50%
    20:00 +27°C° 0 mm 3 mps 655 mmHg 55%
    21:00 +25°C° 0 mm 3 mps 655 mmHg 61%
    22:00 +24°C° 0 mm 3 mps 655 mmHg 60%
    23:00 +24°C° 0 mm 3 mps 655 mmHg 58%

    21 July, Sunday

    Time Temperature Precipitation Wind Pressure Humidity
    00:00 +23°C° 0 mm 2 mps 655 mmHg 57%
    01:00 +23°C° 0 mm 2 mps 655 mmHg 57%
    02:00 +23°C° 0 mm 2 mps 655 mmHg 57%
    03:00 +21°C° 0 mm 2 mps 655 mmHg 58%
    04:00 +23°C° 0 mm 2 mps 655 mmHg 55%
    05:00 +24°C° 0 mm 2 mps 656 mmHg 52%
    06:00 +25°C° 0 mm 2 mps 656 mmHg 49%
    07:00 +27°C° 0 mm 2 mps 656 mmHg 43%
    08:00 +30°C° 0 mm 2 mps 657 mmHg 37%
    09:00 +32°C° 0 mm 2 mps 657 mmHg 31%
    10:00 +34°C° 0 mm 2 mps 657 mmHg 29%
    11:00 +36°C° 0 mm 3 mps 657 mmHg 26%
    12:00 +37°C° 0 mm 4 mps 657 mmHg 24%
    13:00 +38°C° 0 mm 4 mps 657 mmHg 22%
    14:00 +38°C° 0 mm 3 mps 657 mmHg 21%
    15:00 +39°C° 0 mm 3 mps 656 mmHg 20%
    16:00 +38°C° 0 mm 3 mps 656 mmHg 23%
    17:00 +37°C° 0 mm 3 mps 656 mmHg 27%
    18:00 +36°C° 0 mm 3 mps 655 mmHg 31%
    19:00 +35°C° 0 mm 3 mps 655 mmHg 34%
    20:00 +33°C° 0 mm 3 mps 655 mmHg 37%
    21:00 +30°C° 0 mm 3 mps 655 mmHg 40%
    22:00 +29°C° 0 mm 2 mps 655 mmHg 38%
    23:00 +28°C° 0 mm 2 mps 654 mmHg 36%
    Show more